KN4RPA Weather Reports


time (UTC)temp
F
wind
direction
speed
knots
gust
knots
rain 1hr
in
rain 24hr
in
rain mn
in
humidity
%
barometer
mb
20260507190012 55 177 0.0 4.3 0.00 0.04 0.02 68 1008.9
20260507184513 54 219 0.0 0.9 0.00 0.04 0.02 68 1009.3
20260507183009 54 219 0.0 0.9 0.00 0.04 0.02 62 1009.7
20260507181506 55 219 0.0 1.7 0.01 0.04 0.02 54 1009.9
20260507180008 55 219 0.0 1.7 0.01 0.04 0.02 55 1009.6
20260507174503 55 219 0.0 0.0 0.01 0.04 0.02 53 1009.8
20260507173004 55 219 0.0 0.9 0.01 0.04 0.02 58 1009.7
20260507171502 55 219 0.0 3.5 0.00 0.03 0.01 55 1009.8
20260507170001 56 217 0.0 2.6 0.00 0.03 0.01 53 1010.1
20260507164602 56 211 0.0 3.5 0.00 0.03 0.01 58 1010.3
20260507163058 56 344 0.0 0.0 0.00 0.03 0.01 58 1010.9
20260507161600 56 344 0.0 0.9 0.00 0.03 0.01 56 1010.9
20260507160108 56 342 0.0 3.5 0.00 0.03 0.01 56 1010.4
20260507154556 56 351 1.7 7.0 0.00 0.03 0.01 55 1010.8
20260507153100 56 328 0.0 3.5 0.00 0.03 0.01 58 1010.7
20260507151555 56 327 0.0 0.9 0.00 0.03 0.01 61 1010.9
20260507150053 56 355 0.9 5.2 0.00 0.03 0.01 61 1010.9
20260507144552 56 22 0.0 4.3 0.00 0.08 0.01 62 1010.9
20260507143051 56 338 0.0 4.3 0.00 0.08 0.01 64 1011.4
20260507141550 56 342 0.9 4.3 0.00 0.08 0.01 65 1011.3
20260507140103 56 346 0.0 2.6 0.00 0.08 0.01 65 1011.5
20260507134548 56 44 0.0 7.8 0.00 0.09 0.01 65 1011.4
20260507133047 56 330 0.0 3.5 0.00 0.09 0.01 66 1011.2
20260507131548 56 312 0.0 3.5 0.00 0.09 0.01 69 1011.2
20260507130044 56 316 0.9 3.5 0.00 0.09 0.01 71 1011.1
20260507124542 56 271 0.0 2.6 0.00 0.09 0.01 72 1011.2
20260507123040 55 322 2.6 7.8 0.00 0.09 0.01 75 1010.8
20260507121537 55 265 0.0 3.5 0.00 0.09 0.01 78 1010.8
20260507120036 55 329 0.0 2.6 0.00 0.09 0.01 79 1010.4
20260507114535 55 331 0.0 2.6 0.00 0.09 0.01 80 1010.8
20260507113036 55 331 0.0 1.7 0.00 0.09 0.01 81 1010.6
20260507111533 55 331 0.0 4.3 0.00 0.09 0.01 81 1010.5
20260507110031 55 339 0.0 3.5 0.00 0.09 0.01 82 1010.7
20260507104528 55 339 0.0 0.9 0.00 0.09 0.01 82 1010.5
20260507103025 55 336 0.0 1.7 0.00 0.09 0.01 83 1010.1
20260507101537 54 336 0.0 2.6 0.00 0.09 0.01 83 1010.0
20260507100030 54 336 0.0 0.9 0.00 0.09 0.01 84 1010.0
20260507094522 54 336 0.0 5.2 0.00 0.09 0.01 85 1010.2
20260507093027 55 339 0.0 2.6 0.00 0.09 0.01 86 1009.9
20260507091546 55 339 0.0 2.6 0.00 0.09 0.01 86 1010.3
20260507090020 55 339 0.0 4.3 0.00 0.09 0.01 86 1009.8
20260507084517 55 339 0.0 3.5 0.00 0.09 0.01 87 1009.6
20260507083020 56 337 0.0 0.9 0.00 0.09 0.01 87 1009.7
20260507081518 56 336 0.0 0.9 0.00 0.09 0.01 87 1010.1
20260507080016 56 336 0.0 2.6 0.00 0.09 0.01 86 1009.7
20260507074513 56 336 0.0 2.6 0.00 0.09 0.01 86 1009.2
20260507073013 56 338 0.0 3.5 0.00 0.09 0.01 86 1009.1
20260507071512 56 342 0.0 0.9 0.00 0.09 0.01 86 1009.2
20260507070140 56 342 0.0 3.5 0.01 0.09 0.01 86 1009.2
20260507064513 57 343 0.0 10.4 0.01 0.09 0.01 86 1009.0
20260507063007 58 351 0.0 7.8 0.01 0.09 0.01 86 1009.2
20260507061513 58 298 0.0 4.3 0.01 0.09 0.01 86 1009.2
20260507060003 59 262 0.0 2.6 0.00 0.08 0.00 86 1008.1
20260507054500 60 261 0.0 2.6 0.01 0.08 0.00 85 1007.5
20260507053058 61 259 0.0 3.5 0.01 0.08 0.00 84 1008.0
20260507051555 62 326 0.0 4.3 0.02 0.08 0.00 84 1008.8
20260507050052 62 349 0.0 0.9 0.02 0.08 0.00 83 1009.1
20260507044550 63 360 0.0 0.0 0.01 0.07 0.07 83 1008.5
20260507043049 65 63 1.7 7.0 0.01 0.07 0.07 84 1008.8
20260507041550 65 161 0.0 0.0 0.00 0.06 0.06 83 1008.1
20260507040051 65 161 0.0 0.0 0.00 0.06 0.06 83 1008.2
20260507034549 65 161 0.0 0.0 0.00 0.06 0.06 83 1008.0
20260507033047 65 161 0.0 0.0 0.00 0.06 0.06 82 1007.8
20260507031546 65 161 0.0 0.0 0.00 0.06 0.06 82 1007.8
20260507030050 65 161 0.0 0.0 0.00 0.06 0.06 82 1008.1
20260507024546 65 161 0.0 0.0 0.00 0.06 0.06 81 1007.8
20260507023045 66 161 0.0 0.0 0.00 0.06 0.06 81 1007.4
20260507021550 66 161 0.0 0.0 0.00 0.06 0.06 80 1007.1
20260507020051 66 161 0.0 0.0 0.00 0.06 0.06 79 1007.7
20260507014557 66 161 0.0 0.0 0.00 0.06 0.06 79 1007.6
20260507013043 66 161 0.0 0.0 0.00 0.06 0.06 78 1007.8
20260507011543 67 161 0.0 0.0 0.00 0.06 0.06 78 1007.8
20260507010050 67 161 0.0 0.0 0.00 0.06 0.06 78 1007.2
20260507004543 67 161 0.0 0.0 0.00 0.06 0.06 77 1007.3
20260507003041 67 161 0.0 0.9 0.00 0.06 0.06 77 1007.1
20260507001540 68 161 0.0 2.6 0.00 0.06 0.06 76 1007.1
20260507000043 68 161 0.0 0.9 0.00 0.06 0.06 76 1007.1
20260506234540 69 161 0.0 1.7 0.00 0.06 0.06 75 1006.9
20260506233039 69 161 0.0 5.2 0.00 0.06 0.06 75 1006.6
20260506231538 69 161 0.0 4.3 0.00 0.06 0.06 74 1006.6
20260506230037 69 162 0.0 4.3 0.00 0.06 0.06 73 1006.7
20260506224538 70 159 0.0 4.3 0.00 0.06 0.06 72 1006.8
20260506223037 70 159 0.0 5.2 0.00 0.06 0.06 71 1006.7
20260506221536 70 165 0.0 4.3 0.00 0.06 0.06 71 1006.9
20260506220038 70 164 0.0 5.2 0.00 0.06 0.06 71 1006.8
20260506214535 70 159 0.0 9.6 0.00 0.06 0.06 70 1006.6
20260506213034 70 157 0.0 6.1 0.00 0.06 0.06 71 1006.9
20260506211533 70 169 0.0 7.8 0.00 0.06 0.06 71 1006.6
20260506210033 69 166 0.9 6.1 0.00 0.06 0.06 72 1006.7
20260506204531 69 159 0.0 2.6 0.00 0.06 0.06 72 1006.5
20260506203029 68 162 0.9 7.8 0.00 0.06 0.06 73 1006.5
20260506201541 68 168 3.5 8.7 0.00 0.06 0.06 74 1006.7
20260506200029 67 153 0.0 5.2 0.00 0.06 0.06 76 1006.6
20260506194529 66 160 0.9 6.1 0.00 0.06 0.06 77 1006.8
20260506193026 66 153 1.7 10.4 0.00 0.06 0.06 78 1007.0
20260506191522 66 167 1.7 7.0 0.00 0.06 0.06 79 1007.3